Tracking 30264 objects as of 16-Feb-2025
HD Live streaming from Space Station
objects crossing your sky now

ATLAS 5 CENTAUR R/B

Track ATLAS 5 CENTAUR R/B now!


NORAD ID: 39505
Int'l Code: 2014-004B
Perigee: 4,592.2 km
Apogee: 34,758.4 km
Inclination: 24.8 °
Period: 697.2 minutes
Semi major axis: 26046 km
RCS: Unknown
Launch date: January 23, 2014
Source: United States (US)
Launch site: AIR FORCE EASTERN TEST RANGE (AFETR)

Note: This is a ROCKET BODY
Your satellite tracking list
Your tracking list is empty




NASA's NSSDC Master Catalog

Two Line Element Set (TLE):
1 39505U 14004B   25045.68828898 -.00000134  00000-0  00000-0 0  9993
2 39505  24.8239  90.2608 5790889 137.8791 285.2222  2.06530267 83475
Source of the keplerian elements: AFSPC